Zurück zum Katalog

ECHOSTAR 5

AktivKommunikationGEO
NORAD 25913·PAYLOAD·🇺🇸 United States

Gestartet Sep 23, 1999 von Cape Canaveral Space Force Station

Loading…

TLE

AktuellSource: Space-Track

Epoche: Sep 13, 2026, 21:05 UTC

1 25913U 99050A   26256.87907588 -.00000003  00000-0  00000+0 0  9999
2 25913  12.1188  35.3642 0001764 171.6907 186.6999  0.98744423 97741

Verfolge ECHOSTAR 5 in Echtzeit mit AllMySat

Download on the App Store